Location: Buckeye Ditch
(40.9104°N, 122.9517°W)
Time: 08:10:30
(UTC+00:00)

SR - Pass Details

Date: 25 May 2025
Orbit: 570 x 855 km, 66.7° (Epoch: 20 June)

Event Time Altitude Azimuth Distance (km) Brightness Sun altitude
Exits shadow 08:37:59 11° 272° (W) 2,410 ? -27.7°
Maximum altitude 08:41:53 20° 316° (NW) 1,863 ? -27.6°
Drops below altitude 10° 08:46:03 10° 3° (N) 2,466 ? -27.5°
Sets 08:49:10 0° 20° (NNE) 3,375 ? -27.4°
